SCP
0 0 0 0 0 0 -0 -0 -0 -0 -0 -0 -0 -0 -0 -0 -0 -0 -0 -0 -0 -0 -0 -0 -0 -0 -0 -0 -0 -0 -0 -0 -0 -0 -0 -0 -0 -0 -0 -0 -0 -0 -0
0 0 0 0 0 0 0 -0 -0 0 -0 -0 -0 -0 -0 -0 -0 -0 -0 -0 -0 -0 -0 -0 -0 -0 -0 -0 -0 -0 -0 -0 -0 -0 -0 -0 -0 -0 -0 -0 -0 -0 -0
0 0 0 0 0 0 0 0 0 -0 -0 -0 -0 -0 -0 -0 -0 -0 -0 -0 -0 -0 -0 -0 -0 -0 -0 -0 -0 -0 -0 -0 -0 -0 -0 -0 -0 -0 -0 -0 -0 -0 -0
0 0 0 0 0 0 0 0 0 0 0 -0 -0 -0 -0 -0 -0 -0 -0 -0 -0 -0 -0 -0 -0 -0 -0 -0 -0 -0 -0 -0 -0 -0 0 0 -0 -0 -0 -0 -0 -0 -0
0 -0 0 0 0 0 0 0 0 0 0 0 0 -0 -0 -0 -0 -0 -0 -0 -0 -0 -0 -0 -0 -0 -0 -0 -0 -0 -0 -0 -0 -0 0 0 0 -0 -0 -0 -0 -0 0
0 0 0 0 0 0 0 0 0 0 0 0 0 -0 -0 -0 -0 -0 -0 -0 -0 -0 -0 -0 -0 -0 -0 -0 -0 -0 -0 -0 -0 0 0 0 0 -0 0 -0 -0 -0 -0
0 0 0 0 0 0 0 0 0 -0 -0 -0 -0 -0 -0 -0 -0 -0 -0 -0 -0 -0 -0 -0 -0 -0 -0 -0 -0 -0 -0 -0 0 0 0 0 0 0 -0 -0 -0 -0 -0
-0 0 0 0 0 0 0 0 -0 -0 -0 -0 -0 -0 -0 -0 -0 -0 -0 -0 -0 -0 -0 -0 -0 -0 -0 -0 -0 -0 -0 -0 0 0 0 0 0 0 -0 -0 -0 0 -0
-0 0 0 0 0 0 0 0 0 -0 -0 -0 -0 -0 -0 -0 -0 -0 -0 -0 -0 -0 -0 -0 -0 -0 -0 0 -0 0 0 0 0 0 0 0 0 0 0 0 0 0 0
-0 -0 0 0 0 0 0 0 0 -0 -0 -0 -0 -0 -0 -0 -0 -0 -0 -0 -0 -0 -0 -0 0 0 0 0 0 0 0 0 0 0 0 0 0 0 0 0 0 0 0
-0 -0 -0 0 0 0 0 0 0 0 -0 -0 -0 -0 0 0 0 -0 -0 -0 -0 -0 -0 0 0 0 0 0 0 0 0 0 0 0 0 0 0 0 0 0 0 0 0
-0 -0 -0 -0 0 0 0 0 0 0 0 0 0 0 0 0 0 0 0 -0 0 -0 -0 0 0 0 0 0 0 0 0 0 0 0 0 0 0 0 0 0 0 0 0
-0 -0 -0 -0 -0 0 0 0 0 0 0 0 0 0 0 0 0 0 0 0 0 0 0 0 0 0 0 0 0 0 0 0 0 0 0 0 0 0 0 0 0 0 0
-0 -0 -0 -0 -0 -0 0 -0 0 0 0 0 0 0 0 0 0 0 0 0 0 0 0 0 0 0 0 0 0 0 0 0 0 0 0 0 0 0 0 0 0 0 0
-0 -0 -0 -0 -0 -0 -0 -0 -0 -0 0 0 0 0 0 0 0 0 0 0 0 0 0 0 0 0 0 0 0 0 0 0 0 0 0 0 0 0 0 0 0 0 0
0 -0 -0 -0 -0 0 -0 -0 -0 -0 -0 -0 -0 -0 -0 0 0 0 0 0 0 0 0 0 0 0 0 0 0 0 0 0 0 0 0 0 0 0 0 0 0 0 0
-0 0 -0 0 0 0 0 0 0 0 -0 -0 -0 -0 -0 -0 -0 0 0 0 0 0 0 0 0 0 0 0 0 0 0 0 0 0 0 0 0 0 0 0 0 0 0
-0 0 0 0 0 0 0 0 0 0 0 0 0 0 0 0 0 0 0 0 0 0 0 0 0 0 0 0 0 0 0 0 0 0 0 0 0 0 0 0 0 0 0
-0 0 0 0 0 0 0 0 0 0 0 0 0 0 0 0 0 0 0 0 0 0 0 0 0 0 0 0 0 0 0 0 0 0 0 0 0 0 0 0 0 0 0
0 0 0 0 0 0 0 0 0 0 0 0 0 0 0 0 0 0 0 0 0 0 0 0 0 0 0 0 0 0 0 0 0 0 0 0 0 0 0 0 0 0 0
0 0 0 0 0 0 0 0 0 0 0 0 0 0 0 0 0 0 0 0 0 0 0 0 0 0 0 0 0 0 0 0 0 0 0 0 0 0 0 0 0 0 0
0 0 0 0 0 0 0 0 0 0 0 0 0 0 0 0 0 0 0 0 0 0 0 0 0 0 0 0 0 0 0 0 0 0 0 0 0 0 0 0 0 0 0
0 0 0 0 0 0 0 0 0 0 0 0 0 0 0 0 0 0 0 0 0 0 0 0 0 0 0 0 0 0 0 0 0 0 0 0 0 0 0 0 0 0 0
0 0 0 0 0 0 0 0 0 0 0 0 0 0 0 0 0 0 0 0 0 0 0 0 0 0 0 0 0 0 0 0 0 0 0 0 0 0 0 0 0 0 0
0 0 0 0 0 0 0 0 0 0 0 0 0 0 0 0 0 0 0 0 0 0 0 0 0 0 0 0 0 0 0 0 0 0 0 0 0 0 0 0 0 0 0
0 0 0 0 0 0 0 0 0 0 0 0 0 0 0 0 0 0 0 0 0 0 0 0 0 0 0 0 0 0 0 0 0 0 0 0 0 0 0 0 0 0 0
Wind_Speed_500mb
22 23 18 19 21 24 24 21 23 22 22 24 25 24 20 16 15 12 15 21 24 25 26 28 32 37 41 41 41 43 43 41 42 42 42 40 38 37 38 39 41 43 41
27 27 23 22 26 29 26 27 26 24 23 26 32 32 23 25 21 22 32 35 33 31 31 33 35 41 41 42 40 39 37 35 35 34 38 38 34 32 35 34 33 31 30
33 30 25 25 28 29 25 25 27 25 26 31 39 28 26 28 30 32 36 36 36 36 32 34 37 39 37 34 31 28 26 23 23 30 32 34 32 27 25 21 21 19 19
33 31 27 26 28 28 25 23 26 27 29 33 34 29 27 31 33 32 34 35 36 34 31 31 33 34 31 25 23 20 18 17 25 23 27 28 20 13 5 9 16 16 13
34 32 29 28 27 27 25 22 25 28 28 29 28 24 28 29 33 33 34 36 32 31 31 32 30 29 26 23 24 22 23 24 25 30 26 21 19 14 9 7 11 14 16
38 33 29 28 27 26 26 21 23 27 28 27 26 25 26 33 33 34 33 30 35 36 34 33 33 33 32 29 26 23 23 23 28 24 19 20 20 19 18 13 12 16 21
37 34 30 28 27 25 23 21 21 23 25 26 25 25 25 28 26 25 29 23 25 30 29 31 35 37 33 27 24 21 24 21 21 21 21 20 21 21 24 22 17 18 26
33 35 31 29 27 25 24 21 20 20 21 22 22 21 21 21 18 20 24 26 24 25 25 29 31 30 29 27 14 20 18 17 18 18 18 21 22 18 18 15 14 23 19
28 35 33 31 29 26 24 22 20 20 18 19 21 20 18 16 14 13 15 23 19 24 25 25 26 25 23 22 16 12 12 15 17 19 21 25 17 12 4 14 19 15 13
25 36 35 32 30 27 25 21 19 18 17 17 16 15 14 12 11 10 9 10 16 22 23 22 21 20 19 19 20 7 6 13 17 11 15 19 13 11 13 16 12 17 9
25 37 38 34 31 29 27 23 20 19 16 15 14 11 8 7 9 11 9 9 13 19 19 19 17 15 16 16 16 6 8 15 18 15 14 12 8 9 16 14 10 10 6
33 33 35 36 34 31 28 26 23 21 18 15 13 11 9 9 8 6 5 5 7 12 17 17 15 13 14 16 11 9 5 11 14 19 18 13 11 10 11 8 7 9 10
35 37 34 38 38 34 31 28 26 24 22 20 18 15 8 4 4 2 3 1 4 9 15 14 12 9 11 10 9 11 1 8 13 15 15 14 8 8 7 7 7 10 11
43 45 43 39 34 34 35 32 29 27 26 24 21 20 16 13 3 3 3 4 6 7 10 11 10 7 5 4 6 7 5 4 6 9 10 12 10 8 8 8 8 10 11
49 49 51 46 42 42 34 35 35 33 31 27 21 23 23 18 11 10 9 7 9 8 10 11 10 8 6 6 6 6 5 5 6 5 9 9 11 11 12 13 14 14 13
42 50 53 52 50 46 43 37 37 34 34 33 29 26 27 22 21 16 12 12 13 9 10 11 11 10 9 8 8 7 7 6 10 13 12 13 13 14 14 15 15 16 17
36 31 48 53 53 54 51 43 40 39 37 36 36 33 28 29 27 24 19 18 16 13 13 14 15 14 12 11 11 11 12 14 15 19 18 18 18 18 19 20 20 20 20
38 38 38 45 53 57 59 53 47 45 44 39 38 37 36 34 34 31 28 24 22 20 18 17 17 17 16 15 15 16 19 20 24 26 28 30 29 28 27 27 28 26 25
45 43 43 43 47 53 56 60 57 49 49 46 42 42 40 38 41 39 34 30 29 26 25 23 21 20 21 22 23 25 27 29 31 32 33 35 37 40 41 38 37 37 35
49 47 44 44 41 48 53 56 59 63 55 51 51 48 45 42 41 46 42 38 37 32 31 30 28 26 28 29 31 34 37 38 39 38 40 44 45 45 46 47 48 45 44
53 54 51 48 47 47 55 59 61 63 65 63 58 55 51 47 44 41 44 43 42 40 33 34 34 33 32 33 36 41 45 47 50 49 47 45 44 47 47 45 43 48 45
59 56 54 52 49 50 51 52 59 59 62 61 67 64 58 54 49 46 42 43 42 39 38 40 39 38 37 42 42 43 50 53 55 51 41 42 39 40 47 42 43 43 43
57 61 58 55 56 54 52 49 52 53 58 58 65 69 66 58 55 51 45 37 42 42 38 37 38 39 45 45 48 45 27 24 46 55 47 48 50 52 50 47 52 58 55
51 61 66 61 57 60 59 60 61 62 61 63 62 62 64 62 62 60 56 52 50 49 47 46 47 50 49 51 53 63 56 58 59 44 60 59 57 56 53 50 53 54 60
54 56 60 67 70 65 68 68 67 66 62 55 49 55 59 60 62 63 61 58 55 56 49 49 49 59 59 51 56 58 56 52 61 63 69 65 59 58 57 58 58 57 60
52 56 59 62 66 72 74 72 69 64 59 55 51 54 53 50 52 56 58 59 58 57 55 54 52 51 53 52 44 55 59 55 60 55 64 67 63 74 74 67 65 57 56
Wind_Direction_500mb
168 167 149 128 111 109 95 85 83 84 84 88 90 89 97 101 110 115 111 98 89 90 90 95 94 89 87 86 89 89 87 86 87 87 86 86 87 89 90 88 89 85 84
150 153 135 126 107 110 96 89 80 84 90 90 87 85 83 84 94 104 95 95 94 99 88 96 93 93 94 91 89 88 84 81 85 89 89 86 84 92 96 93 85 83 84
150 143 131 126 116 117 109 95 85 87 95 100 97 94 82 79 86 90 93 94 98 100 102 99 104 100 98 98 93 83 79 79 87 92 92 89 85 88 93 92 78 75 80
154 141 133 128 123 122 119 100 89 89 96 106 109 106 95 84 85 88 91 97 98 99 102 105 109 108 105 98 88 80 78 84 86 84 85 81 84 91 75 33 54 58 58
148 144 137 133 130 128 126 110 97 93 97 100 105 104 91 89 88 86 86 90 97 101 104 108 111 111 108 99 94 83 83 81 87 83 76 73 67 56 49 39 49 56 60
152 146 142 137 136 138 127 121 109 102 102 98 100 100 94 95 99 101 87 93 96 94 91 102 109 112 105 101 93 83 57 69 81 76 78 67 55 44 56 59 50 73 81
150 150 148 143 141 139 137 130 119 107 105 102 101 102 98 104 106 105 103 102 97 99 99 100 104 106 106 95 89 76 64 56 67 60 60 49 45 58 74 83 87 87 83
159 158 156 150 148 145 142 138 130 121 111 105 105 104 103 107 105 95 111 94 100 108 104 104 107 109 108 105 94 87 73 31 49 55 51 56 71 76 100 100 89 89 96
175 169 164 160 158 155 150 148 144 136 127 115 111 109 110 111 105 104 117 118 107 114 112 111 113 112 112 114 113 98 71 29 37 44 69 78 68 83 87 75 93 94 102
187 183 172 169 167 165 162 157 157 153 147 134 126 112 107 111 110 103 102 108 104 120 124 123 122 117 108 113 133 163 85 46 31 47 82 97 84 83 67 95 98 85 85
204 190 177 178 177 176 173 170 169 172 167 159 154 140 137 126 112 112 110 114 119 127 134 132 128 120 110 113 129 138 64 39 37 59 65 98 90 82 96 96 87 101 75
204 202 181 187 187 186 186 183 181 184 186 183 181 179 186 165 134 90 75 86 111 121 137 141 138 133 126 127 128 122 60 41 52 46 44 67 99 75 76 66 41 40 46
204 204 196 195 193 193 196 196 194 195 197 201 200 204 209 197 124 58 1 266 154 139 145 153 153 143 149 139 129 129 168 27 46 41 39 45 69 51 45 60 39 30 23
198 198 191 197 195 208 196 203 206 207 211 216 210 204 205 215 234 263 269 231 215 181 176 179 172 176 160 151 146 155 214 328 28 33 33 29 32 29 16 23 14 360 359
208 204 204 201 192 203 216 207 209 213 217 223 224 220 217 229 243 234 234 231 230 210 207 205 203 199 195 203 205 198 215 273 337 6 8 2 6 8 4 357 359 350 342
221 216 211 210 205 204 208 215 218 220 218 222 232 234 229 235 240 244 241 244 236 230 231 228 226 223 228 233 243 242 248 274 306 326 324 324 330 333 339 335 335 330 330
220 227 217 217 215 210 209 211 207 214 215 224 228 230 235 237 240 252 249 250 249 241 240 242 236 236 241 250 262 262 267 282 295 305 304 303 307 309 313 315 314 312 313
232 230 234 225 218 220 216 215 214 215 223 227 230 232 234 236 240 244 251 253 254 248 245 245 243 246 250 257 263 264 271 278 281 283 288 297 297 298 297 297 297 298 297
234 236 233 234 225 222 222 222 222 220 224 228 230 233 235 237 237 241 244 248 252 252 247 245 244 249 254 261 266 271 275 279 280 284 291 292 295 299 299 295 292 290 289
234 238 239 238 236 225 223 225 225 225 227 229 231 234 236 236 237 238 240 242 247 247 248 245 245 250 257 262 269 279 282 282 282 286 293 292 292 288 288 292 294 290 287
228 232 238 236 236 232 225 223 226 225 225 227 231 232 230 233 235 236 238 243 245 247 250 250 247 255 258 266 273 279 284 291 293 295 290 291 293 290 287 282 283 287 284
223 229 236 241 242 242 241 240 236 232 232 231 232 233 232 235 237 240 237 240 246 250 249 247 250 259 265 266 267 280 292 293 295 302 298 298 300 295 296 295 292 287 285
222 223 231 238 247 251 253 248 244 236 236 233 233 235 234 239 239 241 248 249 252 256 254 251 253 262 265 269 272 267 275 286 294 297 297 295 298 302 295 297 291 293 295
220 220 222 227 237 246 251 252 250 249 245 242 239 242 241 240 243 247 251 255 259 262 259 261 261 261 266 269 267 272 271 278 283 288 296 301 298 297 299 297 298 294 297
222 226 226 227 227 233 240 247 252 253 257 258 248 246 247 244 245 251 252 256 257 258 261 266 266 265 277 268 274 282 287 281 286 275 282 294 299 299 299 297 295 294 297
230 236 240 241 235 230 234 237 244 247 249 248 246 244 249 249 249 247 251 254 258 260 261 262 267 271 272 275 277 277 279 282 285 290 284 291 295 300 301 300 299 304 300
Wind_Speed_850mb
22 23 18 19 21 24 24 21 23 22 22 24 25 24 20 16 15 12 15 21 24 25 26 28 32 37 41 41 41 43 43 41 42 42 42 40 38 37 38 39 41 43 41
27 27 23 22 26 29 26 27 26 24 23 26 32 32 23 25 21 22 32 35 33 31 31 33 35 41 41 42 40 39 37 35 35 34 38 38 34 32 35 34 33 31 30
33 30 25 25 28 29 25 25 27 25 26 31 39 28 26 28 30 32 36 36 36 36 32 34 37 39 37 34 31 28 26 23 23 30 32 34 32 27 25 21 21 19 19
33 31 27 26 28 28 25 23 26 27 29 33 34 29 27 31 33 32 34 35 36 34 31 31 33 34 31 25 23 20 18 17 25 23 27 28 20 13 5 9 16 16 13
34 32 29 28 27 27 25 22 25 28 28 29 28 24 28 29 33 33 34 36 32 31 31 32 30 29 26 23 24 22 23 24 25 30 26 21 19 14 9 7 11 14 16
38 33 29 28 27 26 26 21 23 27 28 27 26 25 26 33 33 34 33 30 35 36 34 33 33 33 32 29 26 23 23 23 28 24 19 20 20 19 18 13 12 16 21
37 34 30 28 27 25 23 21 21 23 25 26 25 25 25 28 26 25 29 23 25 30 29 31 35 37 33 27 24 21 24 21 21 21 21 20 21 21 24 22 17 18 26
33 35 31 29 27 25 24 21 20 20 21 22 22 21 21 21 18 20 24 26 24 25 25 29 31 30 29 27 14 20 18 17 18 18 18 21 22 18 18 15 14 23 19
28 35 33 31 29 26 24 22 20 20 18 19 21 20 18 16 14 13 15 23 19 24 25 25 26 25 23 22 16 12 12 15 17 19 21 25 17 12 4 14 19 15 13
25 36 35 32 30 27 25 21 19 18 17 17 16 15 14 12 11 10 9 10 16 22 23 22 21 20 19 19 20 7 6 13 17 11 15 19 13 11 13 16 12 17 9
25 37 38 34 31 29 27 23 20 19 16 15 14 11 8 7 9 11 9 9 13 19 19 19 17 15 16 16 16 6 8 15 18 15 14 12 8 9 16 14 10 10 6
33 33 35 36 34 31 28 26 23 21 18 15 13 11 9 9 8 6 5 5 7 12 17 17 15 13 14 16 11 9 5 11 14 19 18 13 11 10 11 8 7 9 10
35 37 34 38 38 34 31 28 26 24 22 20 18 15 8 4 4 2 3 1 4 9 15 14 12 9 11 10 9 11 1 8 13 15 15 14 8 8 7 7 7 10 11
43 45 43 39 34 34 35 32 29 27 26 24 21 20 16 13 3 3 3 4 6 7 10 11 10 7 5 4 6 7 5 4 6 9 10 12 10 8 8 8 8 10 11
49 49 51 46 42 42 34 35 35 33 31 27 21 23 23 18 11 10 9 7 9 8 10 11 10 8 6 6 6 6 5 5 6 5 9 9 11 11 12 13 14 14 13
42 50 53 52 50 46 43 37 37 34 34 33 29 26 27 22 21 16 12 12 13 9 10 11 11 10 9 8 8 7 7 6 10 13 12 13 13 14 14 15 15 16 17
36 31 48 53 53 54 51 43 40 39 37 36 36 33 28 29 27 24 19 18 16 13 13 14 15 14 12 11 11 11 12 14 15 19 18 18 18 18 19 20 20 20 20
38 38 38 45 53 57 59 53 47 45 44 39 38 37 36 34 34 31 28 24 22 20 18 17 17 17 16 15 15 16 19 20 24 26 28 30 29 28 27 27 28 26 25
45 43 43 43 47 53 56 60 57 49 49 46 42 42 40 38 41 39 34 30 29 26 25 23 21 20 21 22 23 25 27 29 31 32 33 35 37 40 41 38 37 37 35
49 47 44 44 41 48 53 56 59 63 55 51 51 48 45 42 41 46 42 38 37 32 31 30 28 26 28 29 31 34 37 38 39 38 40 44 45 45 46 47 48 45 44
53 54 51 48 47 47 55 59 61 63 65 63 58 55 51 47 44 41 44 43 42 40 33 34 34 33 32 33 36 41 45 47 50 49 47 45 44 47 47 45 43 48 45
59 56 54 52 49 50 51 52 59 59 62 61 67 64 58 54 49 46 42 43 42 39 38 40 39 38 37 42 42 43 50 53 55 51 41 42 39 40 47 42 43 43 43
57 61 58 55 56 54 52 49 52 53 58 58 65 69 66 58 55 51 45 37 42 42 38 37 38 39 45 45 48 45 27 24 46 55 47 48 50 52 50 47 52 58 55
51 61 66 61 57 60 59 60 61 62 61 63 62 62 64 62 62 60 56 52 50 49 47 46 47 50 49 51 53 63 56 58 59 44 60 59 57 56 53 50 53 54 60
54 56 60 67 70 65 68 68 67 66 62 55 49 55 59 60 62 63 61 58 55 56 49 49 49 59 59 51 56 58 56 52 61 63 69 65 59 58 57 58 58 57 60
52 56 59 62 66 72 74 72 69 64 59 55 51 54 53 50 52 56 58 59 58 57 55 54 52 51 53 52 44 55 59 55 60 55 64 67 63 74 74 67 65 57 56
Wind_Direction_850mb
168 167 149 128 111 109 95 85 83 84 84 88 90 89 97 101 110 115 111 98 89 90 90 95 94 89 87 86 89 89 87 86 87 87 86 86 87 89 90 88 89 85 84
150 153 135 126 107 110 96 89 80 84 90 90 87 85 83 84 94 104 95 95 94 99 88 96 93 93 94 91 89 88 84 81 85 89 89 86 84 92 96 93 85 83 84
150 143 131 126 116 117 109 95 85 87 95 100 97 94 82 79 86 90 93 94 98 100 102 99 104 100 98 98 93 83 79 79 87 92 92 89 85 88 93 92 78 75 80
154 141 133 128 123 122 119 100 89 89 96 106 109 106 95 84 85 88 91 97 98 99 102 105 109 108 105 98 88 80 78 84 86 84 85 81 84 91 75 33 54 58 58
148 144 137 133 130 128 126 110 97 93 97 100 105 104 91 89 88 86 86 90 97 101 104 108 111 111 108 99 94 83 83 81 87 83 76 73 67 56 49 39 49 56 60
152 146 142 137 136 138 127 121 109 102 102 98 100 100 94 95 99 101 87 93 96 94 91 102 109 112 105 101 93 83 57 69 81 76 78 67 55 44 56 59 50 73 81
150 150 148 143 141 139 137 130 119 107 105 102 101 102 98 104 106 105 103 102 97 99 99 100 104 106 106 95 89 76 64 56 67 60 60 49 45 58 74 83 87 87 83
159 158 156 150 148 145 142 138 130 121 111 105 105 104 103 107 105 95 111 94 100 108 104 104 107 109 108 105 94 87 73 31 49 55 51 56 71 76 100 100 89 89 96
175 169 164 160 158 155 150 148 144 136 127 115 111 109 110 111 105 104 117 118 107 114 112 111 113 112 112 114 113 98 71 29 37 44 69 78 68 83 87 75 93 94 102
187 183 172 169 167 165 162 157 157 153 147 134 126 112 107 111 110 103 102 108 104 120 124 123 122 117 108 113 133 163 85 46 31 47 82 97 84 83 67 95 98 85 85
204 190 177 178 177 176 173 170 169 172 167 159 154 140 137 126 112 112 110 114 119 127 134 132 128 120 110 113 129 138 64 39 37 59 65 98 90 82 96 96 87 101 75
204 202 181 187 187 186 186 183 181 184 186 183 181 179 186 165 134 90 75 86 111 121 137 141 138 133 126 127 128 122 60 41 52 46 44 67 99 75 76 66 41 40 46
204 204 196 195 193 193 196 196 194 195 197 201 200 204 209 197 124 58 1 266 154 139 145 153 153 143 149 139 129 129 168 27 46 41 39 45 69 51 45 60 39 30 23
198 198 191 197 195 208 196 203 206 207 211 216 210 204 205 215 234 263 269 231 215 181 176 179 172 176 160 151 146 155 214 328 28 33 33 29 32 29 16 23 14 360 359
208 204 204 201 192 203 216 207 209 213 217 223 224 220 217 229 243 234 234 231 230 210 207 205 203 199 195 203 205 198 215 273 337 6 8 2 6 8 4 357 359 350 342
221 216 211 210 205 204 208 215 218 220 218 222 232 234 229 235 240 244 241 244 236 230 231 228 226 223 228 233 243 242 248 274 306 326 324 324 330 333 339 335 335 330 330
220 227 217 217 215 210 209 211 207 214 215 224 228 230 235 237 240 252 249 250 249 241 240 242 236 236 241 250 262 262 267 282 295 305 304 303 307 309 313 315 314 312 313
232 230 234 225 218 220 216 215 214 215 223 227 230 232 234 236 240 244 251 253 254 248 245 245 243 246 250 257 263 264 271 278 281 283 288 297 297 298 297 297 297 298 297
234 236 233 234 225 222 222 222 222 220 224 228 230 233 235 237 237 241 244 248 252 252 247 245 244 249 254 261 266 271 275 279 280 284 291 292 295 299 299 295 292 290 289
234 238 239 238 236 225 223 225 225 225 227 229 231 234 236 236 237 238 240 242 247 247 248 245 245 250 257 262 269 279 282 282 282 286 293 292 292 288 288 292 294 290 287
228 232 238 236 236 232 225 223 226 225 225 227 231 232 230 233 235 236 238 243 245 247 250 250 247 255 258 266 273 279 284 291 293 295 290 291 293 290 287 282 283 287 284
223 229 236 241 242 242 241 240 236 232 232 231 232 233 232 235 237 240 237 240 246 250 249 247 250 259 265 266 267 280 292 293 295 302 298 298 300 295 296 295 292 287 285
222 223 231 238 247 251 253 248 244 236 236 233 233 235 234 239 239 241 248 249 252 256 254 251 253 262 265 269 272 267 275 286 294 297 297 295 298 302 295 297 291 293 295
220 220 222 227 237 246 251 252 250 249 245 242 239 242 241 240 243 247 251 255 259 262 259 261 261 261 266 269 267 272 271 278 283 288 296 301 298 297 299 297 298 294 297
222 226 226 227 227 233 240 247 252 253 257 258 248 246 247 244 245 251 252 256 257 258 261 266 266 265 277 268 274 282 287 281 286 275 282 294 299 299 299 297 295 294 297
230 236 240 241 235 230 234 237 244 247 249 248 246 244 249 249 249 247 251 254 258 260 261 262 267 271 272 275 277 277 279 282 285 290 284 291 295 300 301 300 299 304 300